Date,TemperatureHighF,TemperatureAvgF,TemperatureLowF,DewpointHighF,DewpointAvgF,DewpointLowF,HumidityHigh,HumidityAvg,HumidityLow,PressureMaxIn,PressureMinIn,WindSpeedMaxMPH,WindSpeedAvgMPH,GustSpeedMaxMPH,PrecipitationSumIn
2013-1-1,29.7,15.8,5.4,15.5,8.4,0.1,84,73,51,30.12,29.96,8,3,10,0.00
2013-1-2,8.2,2.1,-2.7,2.0,-2.9,-8.1,85,79,65,30.19,30.11,6,2,8,0.00
2013-1-3,24.3,7.2,-1.1,6.0,-1.0,-6.8,81,69,45,30.16,29.98,4,2,6,0.00
2013-1-4,28.2,12.5,0.1,11.6,3.2,-5.5,80,67,39,30.04,29.95,9,2,18,0.00
2013-1-5,32.5,17.3,5.4,13.7,7.4,-0.3,85,66,43,30.09,29.88,7,2,11,0.00
2013-1-6,36.5,23.7,12.2,21.1,15.1,5.6,82,70,50,29.89,29.71,8,3,11,0.00
2013-1-7,48.9,29.8,19.9,34.8,21.0,14.7,85,70,48,29.78,29.52,24,6,31,0.00
2013-1-8,49.1,38.1,28.8,26.7,20.2,10.0,74,51,30,29.78,29.53,25,9,44,0.05
2013-1-9,43.2,39.8,37.9,25.8,25.0,23.7,60,56,52,29.76,29.73,36,24,46,0.14
2013-1-10,26.6,17.5,10.9,22.6,13.5,3.2,92,84,71,29.59,29.41,36,27,46,0.04
2013-1-11,15.6,8.2,5.7,3.5,-0.4,-3.0,76,67,60,29.88,29.58,32,20,44,0.00
2013-1-12,15.6,1.5,-7.1,5.6,-5.0,-15.3,80,73,52,29.95,29.86,15,3,21,0.00
2013-1-13,17.8,4.4,-2.2,4.3,-3.6,-8.8,78,69,47,30.00,29.94,6,2,11,0.00
2013-1-14,14.5,3.2,-12.5,7.5,-3.4,-19.0,84,73,52,30.00,29.88,4,2,8,0.07
2013-1-15,30.0,18.5,9.3,17.2,11.6,2.9,87,75,50,30.10,29.96,6,2,8,0.00
2013-1-16,26.2,12.8,5.5,12.4,5.8,0.5,88,74,49,30.16,30.05,7,2,13,0.00
2013-1-17,32.0,14.3,0.5,15.5,5.8,-5.1,86,70,43,30.19,29.96,9,2,12,0.25
2013-1-18,45.5,26.2,13.3,24.6,14.9,8.0,83,64,38,29.98,29.79,10,4,15,0.00
2013-1-19,38.8,25.3,16.2,21.1,14.3,6.8,82,64,42,30.06,29.91,5,2,9,0.00
2013-1-20,34.7,26.1,18.1,20.7,16.0,12.5,83,66,54,30.15,29.99,31,13,40,0.18
2013-1-22,34.5,20.0,7.0,16.9,11.2,2.7,85,69,51,29.97,29.88,4,1,9,0.00
2013-1-23,43.2,28.7,18.7,24.6,18.6,13.0,85,68,42,29.89,29.67,31,6,42,0.13
2013-1-24,49.1,39.8,29.1,33.2,24.2,19.1,81,55,41,29.90,29.68,23,9,31,0.00
2013-1-25,42.3,34.4,25.7,31.9,27.2,21.3,89,75,56,29.90,29.71,18,4,24,0.00
2013-1-26,49.6,38.9,31.1,34.3,31.2,26.9,96,75,55,29.72,29.49,28,12,37,0.01
2013-1-27,37.6,29.0,20.7,31.8,24.3,17.3,97,83,55,29.65,29.58,16,4,20,0.00
2013-1-28,36.9,24.0,16.7,21.5,16.9,12.2,89,75,48,29.65,29.50,14,3,22,0.00
2013-1-29,25.2,17.3,10.2,22.6,8.7,-2.3,93,69,53,29.89,29.50,32,13,45,6.22
2013-1-30,42.6,27.6,12.4,25.5,16.9,3.9,83,65,48,29.81,29.65,25,9,43,2.33
2013-1-31,47.3,39.5,33.1,30.6,26.4,22.9,77,61,43,29.86,29.77,20,8,38,0.56
2013-2-1,47.5,39.4,31.6,31.1,23.2,16.7,88,55,34,30.05,29.78,19,9,31,0.01
2013-2-2,50.9,33.4,23.7,26.3,21.9,18.0,86,65,39,30.14,30.00,7,3,11,0.00
2013-2-3,44.6,30.1,23.0,26.9,22.4,18.7,86,74,46,30.00,29.76,10,2,14,0.00
2013-2-4,44.2,36.5,27.7,28.1,25.1,20.4,89,65,48,29.77,29.67,14,4,18,0.00
2013-2-5,48.9,36.5,31.1,33.8,27.5,24.9,85,71,50,29.76,29.54,13,4,18,0.00
2013-2-6,43.3,34.2,26.4,29.1,22.5,17.8,82,63,41,29.85,29.59,22,5,31,0.00
2013-2-7,44.6,33.8,25.2,23.6,18.8,12.5,82,56,34,29.85,29.66,35,16,44,1.25
2013-2-8,40.3,29.1,19.2,22.9,20.4,15.2,87,71,48,29.75,29.66,8,3,11,0.00
2013-2-9,42.8,30.7,23.7,26.2,19.7,13.4,90,65,39,29.76,29.59,23,10,35,0.00
2013-2-10,31.6,28.0,25.9,22.8,17.3,11.5,82,65,47,29.89,29.75,26,19,38,0.02
2013-2-11,34.9,24.8,13.1,18.9,12.6,8.2,81,62,40,29.86,29.80,6,2,9,0.00
2013-2-12,39.9,29.5,17.2,27.0,20.1,11.3,82,68,51,29.90,29.80,8,3,14,0.00
2013-2-13,50.2,40.5,33.3,26.2,21.7,13.9,73,50,30,29.88,29.70,27,14,44,2.96
2013-2-14,37.6,29.0,21.9,23.6,20.2,16.7,90,70,49,30.10,29.88,22,6,36,0.01
2013-2-15,50.9,33.7,22.3,25.2,20.9,16.8,84,62,36,30.15,29.62,12,4,18,0.00
2013-2-16,36.3,24.0,19.8,27.0,19.9,17.0,91,84,62,29.63,29.54,3,2,8,0.00
2013-2-17,41.2,33.8,27.1,27.5,19.6,13.4,94,60,38,29.79,29.57,21,10,35,0.31
2013-2-18,42.1,29.9,22.3,25.8,18.2,5.6,90,65,25,29.85,29.65,26,11,36,0.00
2013-2-19,45.0,30.9,24.4,21.7,16.0,10.7,79,55,35,29.66,29.45,30,12,34,0.00
2013-2-20,36.7,28.1,21.0,26.7,20.2,13.8,84,73,53,29.66,29.53,15,6,21,0.00
2013-2-21,40.3,27.6,12.7,19.3,11.7,4.0,80,54,30,29.75,29.65,16,4,25,0.00
2013-2-22,48.4,33.8,23.2,22.4,15.4,10.2,79,51,25,29.72,29.44,24,10,34,0.01
2013-2-23,41.4,34.2,27.3,27.8,13.0,2.6,86,45,25,29.82,29.39,24,13,34,0.01
2013-2-24,42.8,29.0,16.3,17.4,12.7,7.4,78,54,26,29.95,29.82,18,6,23,0.00
2013-2-25,43.2,29.1,18.9,30.7,18.5,10.7,94,68,34,29.84,29.60,32,7,42,0.00
2013-2-26,44.2,30.2,21.9,22.8,14.7,7.8,93,56,30,29.98,29.73,16,7,27,0.00
2013-2-27,43.9,28.4,14.7,17.0,12.7,8.8,81,56,27,30.02,29.90,10,3,15,0.00
2013-2-28,46.9,32.5,19.9,25.7,17.9,12.4,77,58,33,30.05,29.96,9,3,12,0.00
2013-3-1,55.2,41.0,32.7,31.7,28.6,23.7,79,63,40,30.07,30.01,10,3,13,0.00
2013-3-2,62.4,41.1,28.4,33.1,28.3,24.5,88,65,33,30.06,29.66,12,3,19,0.00
2013-3-3,47.7,36.2,23.7,37.2,20.1,-4.2,90,58,18,29.82,29.42,38,16,56,87.53
2013-3-4,33.6,23.4,15.4,14.0,8.4,0.9,71,54,31,30.05,29.81,22,13,36,0.04
2013-3-5,39.9,27.5,10.4,18.6,10.6,3.8,77,52,32,29.97,29.73,25,11,31,0.00
2013-3-6,30.2,25.7,21.7,19.6,18.2,15.9,83,73,62,29.73,29.61,5,2,11,0.00
2013-3-7,50.5,38.8,27.3,28.6,19.9,12.9,80,50,28,29.79,29.72,12,5,20,0.00
2013-3-8,47.1,33.0,18.5,25.0,16.9,9.2,85,55,30,29.78,29.64,9,3,15,0.00
2013-3-9,48.6,32.3,17.8,21.8,15.4,10.5,78,54,28,30.02,29.73,16,5,27,0.00
2013-3-10,52.2,35.8,18.1,27.1,18.0,11.5,86,54,25,30.06,29.83,25,4,34,0.00
2013-3-11,44.1,37.8,26.2,27.1,19.8,14.4,70,50,35,30.01,29.82,23,14,40,0.01
2013-3-12,49.3,33.5,20.1,25.7,19.8,15.4,85,61,35,30.02,29.79,11,4,16,0.00
2013-3-13,63.3,48.3,36.9,29.4,26.0,4.5,66,46,26,29.93,29.85,18,5,28,96.76
2013-3-14,67.5,49.7,32.9,31.8,27.9,23.5,78,48,25,29.95,29.72,23,5,31,0.00
2013-3-15,60.6,49.3,37.4,30.7,24.6,20.0,63,41,25,29.82,29.72,22,8,34,0.00
2013-3-16,56.3,43.4,34.2,28.0,23.4,15.8,72,48,24,29.81,29.41,11,4,15,0.00
2013-3-17,42.3,33.7,18.5,32.9,14.2,-1.5,89,50,21,29.72,29.36,28,15,42,10.39
2013-3-18,43.7,29.4,16.3,25.5,12.4,-0.3,92,57,20,29.76,29.63,22,7,37,0.13
2013-3-19,45.0,34.5,25.0,24.9,8.8,-6.1,91,40,16,29.98,29.76,19,7,29,0.00
2013-3-20,61.2,44.7,32.2,32.8,20.8,3.8,84,41,24,29.83,29.33,34,20,49,2.04
2013-3-21,45.3,36.7,25.2,28.9,7.6,-5.4,73,34,17,29.70,29.45,21,8,31,0.02
2013-3-22,36.0,26.7,17.1,17.6,9.1,4.5,72,49,30,29.93,29.68,22,10,33,0.01
2013-3-23,36.5,23.9,13.1,12.9,5.1,-8.8,70,47,20,30.02,29.92,17,8,25,0.00
2013-3-24,38.3,24.9,8.1,15.1,5.9,-10.1,81,49,17,30.04,29.93,12,4,16,0.00
2013-3-25,51.8,30.3,13.3,17.6,4.1,-2.6,65,40,15,29.95,29.75,20,7,27,0.00
2013-3-26,52.7,38.9,25.9,21.0,12.5,6.8,56,37,24,29.78,29.69,25,4,104,56.61
2013-3-27,60.6,40.5,23.4,31.1,20.7,13.0,75,50,26,29.81,29.72,15,4,23,0.00
2013-3-28,61.9,47.2,27.3,35.1,28.6,21.1,85,52,31,29.86,29.76,15,5,22,0.00
2013-3-29,59.9,47.0,35.2,38.2,31.5,23.7,90,59,32,29.91,29.83,13,5,34,0.00
2013-3-30,60.3,46.7,35.1,35.1,27.0,20.0,74,50,28,30.01,29.85,11,5,21,0.00
2013-3-31,60.3,44.6,27.7,33.8,24.6,19.4,82,50,29,29.89,29.81,19,7,30,0.00
2013-4-1,68.4,47.1,26.2,30.4,22.0,14.5,78,43,21,29.86,29.74,12,3,17,0.00
2013-4-2,68.5,48.9,26.4,30.2,23.5,15.7,76,42,24,29.86,29.69,18,5,28,0.00
2013-4-3,62.6,52.8,40.6,37.7,29.8,26.2,70,44,32,29.87,29.75,19,5,30,0.00
2013-4-4,67.6,51.8,37.2,39.0,32.1,27.1,76,51,26,29.82,29.55,20,4,27,0.00
2013-4-5,63.9,53.2,43.7,40.5,30.7,22.3,86,47,26,29.69,29.54,22,10,34,0.00
2013-4-6,62.1,46.6,40.5,40.5,31.4,24.4,82,57,33,29.69,29.59,30,7,42,0.02
2013-4-7,55.8,40.1,31.6,39.8,33.7,24.4,96,79,42,29.65,29.38,26,9,39,0.22
2013-4-8,33.4,27.3,21.0,25.3,15.8,9.4,80,63,46,30.01,29.58,30,21,40,0.56
2013-4-9,40.8,28.1,17.8,16.8,10.2,-1.6,70,50,23,30.10,29.95,16,8,22,0.00
2013-4-10,56.1,42.9,26.4,40.8,24.7,15.1,87,52,33,29.96,29.55,21,8,38,0.08
2013-4-11,55.6,47.0,34.3,33.1,22.6,12.2,62,41,23,29.77,29.60,22,14,34,0.01
2013-4-12,58.8,41.1,27.5,32.3,21.5,11.9,84,51,22,29.84,29.40,23,7,34,0.00
2013-4-13,52.9,42.8,30.9,35.9,19.1,-6.3,83,42,15,29.51,29.24,36,17,53,52.48
2013-4-14,39.4,31.2,24.3,26.3,18.3,10.7,95,61,40,29.73,29.50,22,12,40,0.02
2013-4-15,36.3,28.0,21.6,14.9,11.1,5.0,71,52,30,29.88,29.70,23,17,34,0.02
2013-4-16,36.5,28.1,21.0,17.3,10.2,1.1,71,50,26,30.03,29.85,24,16,35,0.00
2013-4-17,40.8,29.4,18.7,16.5,7.5,-16.4,82,47,11,30.04,29.97,19,11,31,0.00
2013-4-18,54.1,35.4,15.6,22.4,13.7,4.6,72,44,27,30.00,29.88,20,6,28,0.00
2013-4-19,54.5,41.8,33.6,32.1,23.8,19.1,64,50,38,29.88,29.62,17,5,28,0.00
2013-4-20,60.3,50.9,38.8,37.1,26.2,16.5,86,43,22,29.79,29.63,29,12,43,3.05
2013-4-21,45.9,31.0,23.9,28.9,23.0,16.6,94,74,40,29.98,29.77,28,19,42,0.94
2013-4-22,42.3,30.4,23.2,18.4,12.2,1.3,79,52,22,30.12,29.97,20,11,27,0.00
2013-4-23,50.2,34.2,16.9,23.7,15.8,9.0,80,51,25,30.08,29.88,16,5,27,0.00
2013-4-24,61.2,43.4,24.1,26.0,20.7,13.8,76,46,20,30.02,29.72,11,5,18,0.00
2013-4-25,68.7,54.7,39.2,30.1,20.7,16.2,63,31,18,29.79,29.62,16,8,34,0.00
2013-4-26,74.7,56.8,39.0,33.1,25.9,22.0,57,35,19,29.94,29.79,19,6,29,0.00
2013-4-27,79.2,62.2,41.5,35.3,25.6,15.0,68,32,13,29.91,29.68,28,10,45,0.07
2013-4-28,70.7,55.1,44.6,41.4,30.0,18.2,69,42,21,29.81,29.62,21,8,29,0.00
2013-4-29,62.6,48.3,37.6,36.8,20.7,5.8,61,37,16,29.62,29.34,35,13,55,41.46
2013-4-30,46.9,36.4,27.9,28.0,17.6,5.7,77,49,25,30.00,29.62,26,10,36,0.04
2013-5-1,51.3,36.8,23.0,22.4,15.7,7.7,78,47,22,30.30,29.99,22,7,28,0.00
2013-5-2,64.9,43.4,23.2,23.4,15.4,9.7,68,39,15,30.34,30.04,20,6,30,0.00
2013-5-3,60.4,53.5,43.3,32.6,26.0,18.1,49,37,31,30.00,29.94,15,7,25,0.00
2013-5-4,59.4,53.1,46.6,41.3,36.9,32.8,75,55,43,30.03,29.94,22,12,30,0.00
2013-5-5,71.1,55.5,34.2,40.0,32.7,28.6,87,48,25,29.97,29.75,11,4,16,0.00
2013-5-6,75.2,60.2,36.0,40.4,29.9,17.6,81,39,17,29.82,29.62,8,4,14,0.00
2013-5-7,72.9,60.2,39.2,36.7,32.7,24.7,66,39,26,29.81,29.66,24,11,37,0.02
2013-5-8,74.3,58.7,49.6,39.2,34.4,31.6,52,43,26,29.91,29.81,21,12,29,0.00
2013-5-9,75.6,65.0,47.7,42.3,36.5,31.3,69,39,25,29.94,29.83,31,6,43,0.28
2013-5-10,69.4,55.1,41.0,41.0,35.5,32.3,78,51,31,30.12,29.91,34,13,48,5.56
2013-5-11,78.3,63.5,42.1,43.8,35.7,27.5,78,39,25,30.08,29.87,19,7,28,0.00
2013-5-12,84.6,73.5,49.1,46.1,40.9,36.7,70,36,22,29.92,29.71,16,5,24,0.00
2013-5-13,86.2,63.8,53.8,49.6,43.5,26.4,73,50,16,29.82,29.50,36,12,51,9.48
2013-5-14,74.1,61.0,47.8,42.9,29.2,16.8,63,36,16,29.81,29.63,31,17,44,0.98
2013-5-15,71.1,61.2,48.7,33.5,26.6,21.3,43,30,23,29.84,29.64,23,10,37,0.06
2013-5-16,64.2,56.3,46.4,51.7,43.1,31.9,100,64,39,29.70,29.61,18,7,27,0.12
2013-5-17,57.7,51.4,42.6,50.6,46.6,42.4,100,85,63,29.73,29.64,17,7,25,0.13
2013-5-18,65.3,55.2,48.7,54.0,46.5,39.9,100,76,47,29.78,29.69,23,9,34,0.04
2013-5-19,57.4,52.8,49.8,47.8,43.4,37.1,88,71,57,29.92,29.76,28,16,35,0.01
2013-5-20,53.2,51.6,50.2,48.6,46.9,44.7,93,84,74,29.96,29.91,19,14,28,0.00
2013-5-22,62.6,56.5,50.4,51.8,43.7,37.6,94,64,48,29.64,29.54,40,20,55,0.07
2013-5-23,55.4,45.0,42.3,50.4,43.2,39.5,100,93,83,29.69,29.60,21,14,33,0.12
2013-5-25,69.8,56.8,41.4,43.1,38.6,33.5,81,53,32,29.78,29.67,18,7,27,0.00
2013-5-26,71.4,56.5,43.5,47.2,42.6,35.7,93,62,32,29.78,29.63,25,8,38,0.37
2013-5-27,66.6,52.4,42.3,51.3,45.6,41.4,100,81,44,29.74,29.57,19,5,37,0.39
2013-5-28,63.7,53.7,49.6,51.4,47.3,42.6,100,80,58,29.59,29.53,16,8,24,0.32
2013-5-29,65.8,54.3,50.9,48.8,46.3,43.4,88,75,51,29.57,29.50,12,5,19,0.00
2013-5-30,61.7,56.6,50.7,37.4,33.6,27.8,61,44,36,29.75,29.57,26,16,37,0.73
2013-5-31,53.1,50.3,48.2,35.4,33.3,30.7,60,53,44,29.85,29.74,17,11,30,0.01
2013-6-1,67.8,59.0,38.5,46.9,38.3,28.2,97,52,28,30.06,29.80,17,6,24,0.00
2013-6-2,68.5,55.1,48.9,50.5,45.7,36.3,100,73,45,29.81,29.61,24,6,34,0.57
2013-6-3,59.0,49.2,44.8,49.1,44.0,38.6,100,84,51,29.76,29.65,20,10,30,0.05
2013-6-4,63.1,52.7,42.1,44.8,37.5,34.1,86,59,43,29.99,29.94,18,11,30,0.00
2013-6-5,75.9,57.4,38.3,52.0,42.6,35.8,95,63,35,29.98,29.76,10,4,14,0.00
2013-6-6,80.1,64.6,47.1,53.4,48.3,42.3,100,61,33,29.89,29.75,8,3,13,0.00
2013-6-7,83.3,67.1,52.2,53.6,49.3,42.4,89,57,33,29.77,29.56,33,7,48,1.51
2013-6-8,81.0,67.9,52.3,51.9,39.0,19.7,79,43,15,29.79,29.65,33,11,43,0.34
2013-6-9,64.9,56.4,49.8,45.4,38.9,34.5,72,54,36,29.78,29.75,6,3,12,0.00
2013-6-10,123.8,72.9,54.9,44.7,36.9,26.5,49,31,22,29.70,29.51,14,6,19,0.00
2013-6-11,73.8,63.0,54.3,55.1,48.2,39.9,93,61,38,29.82,29.57,34,12,39,0.13
2013-6-12,81.3,63.0,47.5,58.3,52.9,46.8,100,74,38,29.83,29.62,23,10,35,0.85
2013-6-13,63.3,57.3,51.3,53.8,46.5,38.1,92,68,52,29.84,29.71,34,17,43,1.69
2013-6-14,70.0,56.1,43.5,49.2,37.6,25.6,100,59,24,29.90,29.78,17,7,33,0.00
2013-6-15,75.9,60.3,39.2,42.8,35.4,29.0,80,45,23,29.91,29.74,17,6,24,0.00
2013-6-16,79.5,66.0,48.6,50.2,40.4,30.5,70,43,25,29.89,29.81,15,7,24,0.00
2013-6-17,84.4,69.0,49.6,56.4,48.4,40.0,81,52,25,29.91,29.69,17,6,30,0.01
2013-6-18,101.7,78.0,62.1,58.0,50.9,39.1,67,43,20,29.73,29.45,24,13,34,0.01
2013-6-19,73.2,65.0,59.5,54.5,50.9,47.9,69,62,52,29.50,29.42,24,18,33,0.00
2013-6-20,66.2,56.8,48.7,45.8,40.2,34.6,80,56,37,29.83,29.62,22,13,35,0.32
2013-6-21,67.3,57.1,43.3,46.4,40.8,36.0,79,57,38,29.84,29.80,17,9,27,0.00
2013-6-24,82.0,66.2,51.8,56.8,51.7,44.6,92,63,33,29.55,29.41,18,6,31,0.01
2013-6-25,80.6,66.1,54.1,60.4,52.2,41.3,100,66,29,29.70,29.53,22,6,39,0.09
2013-6-26,74.7,68.4,58.6,55.0,50.2,44.8,85,55,40,29.91,29.69,27,11,38,0.08
2013-6-27,86.0,75.1,55.6,58.8,51.5,47.9,83,47,32,30.00,29.90,16,8,24,0.08
2013-6-28,91.8,76.4,55.4,57.8,52.2,45.5,83,48,30,30.06,29.92,12,4,19,0.00
2013-6-29,75.4,67.7,60.8,59.7,56.2,53.6,80,68,51,29.98,29.94,36,6,36,0.38
2013-6-30,92.3,80.6,58.1,65.6,59.0,55.2,100,52,33,29.94,29.84,13,6,21,0.00
2013-7-1,96.8,80.5,62.2,66.2,58.9,44.4,86,53,23,29.99,29.87,16,6,22,0.00
2013-7-2,94.8,79.5,62.1,71.9,61.0,52.5,85,57,33,29.95,29.76,16,5,30,0.07
2013-7-3,99.0,80.9,62.8,67.8,58.8,45.9,94,55,27,29.83,29.69,20,6,29,0.00
2013-7-4,89.4,78.8,62.8,63.7,53.1,44.9,66,44,31,29.78,29.59,12,5,19,0.00
2013-7-5,86.5,74.7,63.1,61.5,47.0,38.5,88,42,28,29.69,29.55,20,12,31,0.00
2013-7-6,86.9,70.5,55.9,60.8,53.4,42.7,100,62,29,29.77,29.61,17,6,27,0.00
2013-7-7,83.5,69.9,59.9,64.8,55.8,50.1,84,63,40,29.77,29.63,18,7,27,0.11
2013-7-8,80.4,70.6,57.2,62.3,55.8,43.7,89,63,40,29.86,29.70,21,8,34,0.01
2013-7-9,90.0,71.4,52.5,56.7,48.1,38.7,83,49,24,29.98,29.85,13,5,19,0.00
2013-7-10,95.7,76.3,54.5,63.2,50.3,40.6,70,45,20,29.91,29.63,25,7,32,0.00
2013-7-11,87.1,76.1,65.8,58.9,48.9,42.5,62,42,25,29.73,29.60,29,11,42,0.24
2013-7-12,89.2,71.0,53.1,61.0,50.4,41.8,79,52,25,29.75,29.62,28,8,40,0.07
2013-7-13,82.8,70.7,54.1,52.9,46.2,36.5,84,47,23,29.90,29.70,25,12,37,0.00
2013-7-14,86.5,74.1,62.1,56.4,48.7,40.2,66,45,25,29.95,29.77,16,7,55,0.00
2013-7-15,97.0,76.6,59.4,58.2,50.2,37.1,74,46,18,29.85,29.66,32,11,40,0.09
2013-7-16,84.0,70.5,56.8,57.9,50.6,45.3,67,52,36,29.98,29.84,30,14,40,0.17
2013-7-17,90.3,72.4,61.2,65.5,61.1,53.8,100,72,41,29.96,29.77,24,6,36,0.09
2013-7-18,89.2,76.6,59.2,65.4,53.2,37.4,99,53,21,29.98,29.84,20,7,29,0.00
2013-7-19,90.9,75.1,55.2,58.3,45.9,31.3,92,45,17,29.92,29.77,23,7,36,0.00
2013-7-20,88.7,74.8,58.8,57.9,47.5,32.6,64,42,23,29.85,29.65,12,4,17,0.00
2013-7-21,89.6,75.2,55.8,59.3,45.3,36.1,75,41,21,29.75,29.63,11,4,14,0.00
2013-7-22,91.9,75.1,54.9,55.5,42.2,31.4,69,38,16,29.75,29.67,21,7,37,0.00
2013-7-23,90.0,79.4,56.1,54.1,43.3,33.3,74,33,19,29.91,29.80,13,6,19,0.00
2013-7-24,92.8,73.8,56.7,57.9,51.0,38.2,73,49,19,29.88,29.74,14,4,19,0.00
2013-7-25,73.8,68.6,63.9,57.8,55.3,53.0,70,64,57,29.96,29.92,17,12,24,0.00
2013-7-26,92.5,81.9,64.4,59.0,48.4,30.3,69,38,18,29.98,29.77,18,6,24,0.00
2013-7-27,85.6,73.6,59.7,58.5,49.9,41.0,62,46,27,29.83,29.66,26,6,39,0.18
2013-7-28,82.6,71.4,60.8,57.9,52.4,42.5,82,55,32,29.73,29.60,17,8,28,0.00
2013-7-29,79.9,68.1,56.7,55.7,51.3,47.8,82,58,37,29.85,29.68,19,12,32,0.00
2013-7-30,79.3,67.3,58.1,57.8,51.7,0.0,78,60,12,29.98,29.81,16,8,24,0.00
2013-7-31,89.2,71.7,50.7,56.2,47.9,37.4,84,49,20,30.03,29.81,20,4,28,0.00
2013-8-1,78.8,67.9,59.2,58.5,51.9,44.0,97,60,41,29.85,29.67,36,15,49,2.55
2013-8-2,74.3,63.0,58.5,61.8,54.1,47.3,100,77,42,29.88,29.73,23,12,37,0.48
2013-8-3,63.3,57.7,52.3,51.3,50.2,48.7,92,77,61,29.91,29.87,10,6,14,0.00
2013-8-4,83.8,73.6,54.3,58.9,50.2,42.7,91,49,27,29.90,29.77,15,6,21,0.00
2013-8-5,87.1,71.7,52.9,57.5,48.7,41.9,87,50,25,29.85,29.68,29,8,41,0.80
2013-8-6,84.2,70.5,55.2,55.5,49.9,39.7,85,53,26,29.86,29.77,17,7,29,0.00
2013-8-7,85.8,71.4,53.6,55.6,46.2,37.4,79,47,23,29.84,29.72,15,5,25,0.00
2013-8-8,77.7,71.2,63.0,57.2,50.8,44.4,61,51,40,29.86,29.77,15,6,22,0.00
2013-8-9,82.9,72.6,61.5,62.3,56.6,52.6,80,59,40,29.92,29.80,24,8,34,0.00
2013-8-10,84.0,69.4,54.1,59.1,51.7,39.8,91,59,25,29.90,29.78,27,5,42,0.15
2013-8-11,84.2,68.8,25.3,57.1,48.3,4.3,73,51,33,29.88,29.81,36,6,48,2.76
2013-8-12,88.0,70.0,53.2,54.8,48.0,38.3,77,50,26,29.91,29.80,20,6,34,0.00
2013-8-13,91.4,69.0,58.3,57.6,50.1,45.5,77,54,31,29.94,29.86,12,4,20,0.00
2013-8-14,87.8,72.6,52.7,58.6,52.6,44.3,100,55,30,29.94,29.78,9,4,13,0.00
2013-8-15,93.6,73.4,51.6,54.7,47.2,39.5,87,47,20,29.87,29.73,12,4,18,0.00
2013-8-16,97.5,77.6,57.2,60.9,46.4,35.8,80,40,19,29.82,29.69,30,7,30,0.19
2013-8-17,90.1,77.7,60.8,58.0,47.7,-19.5,61,39,26,29.87,29.72,16,5,107,0.00
2013-8-18,90.3,78.9,65.3,58.6,49.2,42.3,65,39,25,29.86,29.72,21,9,28,0.00
2013-8-19,96.1,77.2,56.1,50.9,43.0,31.4,56,35,16,29.87,29.68,22,8,29,0.00
2013-8-20,82.8,69.9,57.0,51.8,43.1,34.6,60,41,29,29.84,29.75,8,4,13,0.00
2013-8-21,88.5,77.9,61.2,50.7,41.2,33.5,51,31,19,29.91,29.78,16,6,21,0.00
2013-8-22,89.4,74.2,55.6,61.5,49.8,39.8,76,46,32,29.90,29.71,24,8,36,2.29
2013-8-23,87.4,70.4,60.4,62.7,57.1,48.0,89,66,37,29.78,29.63,32,8,44,0.26
2013-8-24,83.7,74.3,56.7,62.3,54.4,46.7,93,55,32,29.79,29.65,26,9,37,0.43
2013-8-25,89.2,72.4,54.1,59.4,53.0,45.2,88,55,29,29.83,29.67,52,14,68,3.81
2013-8-26,87.1,69.4,56.5,58.8,52.7,47.7,89,58,33,29.85,29.72,22,7,33,0.00
2013-8-27,90.9,75.7,54.5,61.8,54.6,43.2,100,56,24,29.87,29.72,22,10,32,0.00
2013-8-28,88.3,72.4,55.6,64.1,56.9,-36.5,94,62,36,29.86,29.72,28,10,122,0.05
2013-8-29,61.7,58.3,55.4,59.2,57.1,54.6,100,96,89,29.91,29.85,6,3,9,0.00
2013-8-30,89.1,77.0,57.6,65.8,54.5,43.7,99,53,28,29.89,29.73,22,10,36,0.00
2013-8-31,84.4,71.5,53.8,54.4,45.8,40.6,74,44,26,29.95,29.82,16,5,22,0.00
2013-9-1,90.1,71.1,51.6,61.5,45.0,38.8,81,44,22,29.89,29.71,10,4,13,0.00
2013-9-2,89.4,69.6,53.8,54.0,46.4,38.2,69,47,29,29.78,29.69,9,3,16,0.00
2013-9-3,86.7,77.3,56.1,58.8,53.3,47.7,80,48,30,29.90,29.79,8,4,11,0.00
2013-9-4,69.3,65.1,61.5,66.3,64.0,61.2,100,96,88,29.95,29.91,10,3,14,0.00
2013-9-5,88.5,74.5,57.0,66.6,60.0,50.8,90,64,40,29.89,29.78,34,9,49,2.22
2013-9-6,69.4,61.5,58.3,65.9,60.7,58.0,100,97,82,29.87,29.83,19,6,25,0.00
2013-9-7,85.1,73.0,62.4,63.7,61.4,50.6,95,70,43,29.90,29.75,16,7,30,0.00
2013-9-8,72.7,63.3,56.7,63.2,53.7,45.6,100,74,51,29.82,29.70,24,11,39,0.78
2013-9-9,73.9,62.5,53.8,59.0,52.0,46.6,97,71,49,29.86,29.77,15,4,21,0.01
2013-9-10,82.2,63.9,49.1,55.8,50.6,42.2,100,68,34,29.94,29.83,8,3,54,0.00
2013-9-11,88.3,71.1,50.7,61.2,51.9,45.0,95,57,28,30.03,29.90,14,5,21,0.00
2013-9-12,88.9,72.8,-19.7,61.8,51.8,47.4,72,50,30,30.03,29.81,14,6,100,0.00
2013-9-13,82.4,70.1,52.7,65.3,52.6,45.9,92,58,37,29.81,29.61,12,4,17,0.00
2013-9-14,78.4,71.0,63.1,56.8,50.9,46.5,69,51,39,29.88,29.66,23,12,33,0.00
2013-9-15,74.1,63.6,57.7,55.1,50.4,48.2,72,63,50,29.91,29.85,14,9,103,0.00
2013-9-16,84.7,72.6,56.7,59.7,53.5,45.8,88,55,33,29.73,29.57,29,15,42,0.63
2013-9-17,67.5,58.3,52.2,60.1,51.4,43.8,100,79,52,29.67,29.49,26,9,36,0.18
2013-9-18,64.0,54.5,50.0,53.9,46.4,35.5,100,78,40,29.84,29.48,19,8,32,0.00
2013-9-19,66.0,54.5,47.1,46.2,42.5,38.6,88,67,42,29.96,29.84,11,4,16,0.00
2013-9-20,50.4,43.6,38.1,41.2,39.4,34.1,100,86,70,29.86,29.83,9,4,14,0.00
2013-9-21,85.1,69.2,46.8,49.5,38.7,32.3,62,37,21,29.56,29.36,27,15,43,0.05
2013-9-22,68.9,59.2,51.4,52.4,43.1,33.9,93,60,34,29.57,29.42,25,12,36,0.04
2013-9-23,69.3,56.6,45.1,50.0,39.8,29.7,97,60,27,29.74,29.55,20,9,30,0.02
2013-9-24,56.7,48.0,41.7,49.6,41.0,34.3,100,78,48,29.75,29.53,22,7,32,0.24
2013-9-25,53.1,45.3,39.2,49.0,42.6,37.8,100,91,74,29.59,29.46,22,9,30,0.40
2013-9-26,46.9,42.3,39.0,44.6,37.1,26.1,100,82,65,29.75,29.58,20,14,29,0.30
2013-9-27,58.5,48.2,32.0,38.6,33.8,28.2,96,60,39,29.81,29.53,13,8,24,0.00
2013-9-28,61.7,54.3,45.9,44.1,38.5,34.1,72,56,47,29.72,29.57,31,16,43,0.00
2013-9-29,66.7,53.5,46.6,44.1,39.3,32.0,84,61,40,29.57,29.35,40,18,56,27.22
2013-9-30,61.9,51.4,43.0,47.0,35.8,23.7,95,61,28,29.71,29.34,30,14,65,8.10
2013-10-1,60.6,47.5,0.0,37.3,32.0,26.5,75,56,32,29.80,29.69,18,9,25,0.00
2013-10-2,56.8,47.0,38.1,39.7,31.6,26.2,87,57,39,29.89,29.71,16,6,24,0.02
2013-10-3,43.3,39.2,36.9,40.4,34.0,28.3,96,82,66,30.07,29.71,26,17,37,2.50
2013-10-4,51.8,40.8,33.8,33.1,30.0,25.6,83,67,44,30.21,30.09,21,10,26,0.05
2013-10-5,59.7,39.7,27.5,38.0,31.7,27.3,100,78,36,30.14,30.03,8,2,11,6.05
2013-10-6,69.4,48.8,32.7,46.0,37.2,31.2,97,69,33,30.07,29.81,21,5,30,0.00
2013-10-7,77.0,55.5,35.4,41.8,34.3,28.6,88,52,23,29.81,29.50,27,8,39,0.04
2013-10-8,56.3,48.5,35.8,33.5,29.7,23.0,77,51,32,29.74,29.60,24,9,30,0.07
2013-10-9,62.4,47.6,36.1,37.9,33.6,28.3,87,61,36,29.83,29.65,17,6,100,0.00
2013-10-10,59.0,45.2,32.0,42.6,33.2,23.0,100,67,30,29.66,29.52,24,8,100,12.13
2013-10-11,54.5,45.3,32.7,31.1,26.2,21.3,77,50,31,29.82,29.65,15,7,26,0.00
2013-10-12,51.4,43.7,29.7,35.2,31.1,25.3,93,63,45,29.87,29.79,12,6,17,0.00
2013-10-13,54.0,43.7,33.4,36.2,32.9,29.5,92,67,50,29.95,29.83,22,10,32,0.00
2013-10-14,49.3,42.8,8.4,36.2,31.8,4.2,84,66,49,30.15,29.94,20,13,103,2.55
2013-10-15,51.6,39.2,24.3,34.9,30.2,23.5,100,72,51,30.14,29.91,18,7,24,0.00
2013-10-16,45.7,35.1,25.2,37.7,28.8,22.9,95,79,51,29.92,29.87,18,5,24,0.00
2013-10-17,48.4,41.5,32.9,38.6,32.6,27.4,95,72,57,30.01,29.91,23,8,34,0.06
2013-10-18,59.5,42.8,28.4,37.0,30.3,25.6,93,64,37,30.02,29.85,8,3,14,0.00
2013-10-19,56.8,44.8,29.7,40.2,30.7,25.2,91,61,37,29.86,29.71,18,5,27,0.00
2013-10-20,58.5,45.8,34.0,39.8,35.2,30.1,93,68,45,29.90,29.80,17,5,28,0.00
2013-10-21,62.8,43.0,29.5,39.9,34.2,27.8,100,75,40,29.98,29.88,6,2,9,0.00
2013-10-22,69.6,44.3,29.8,41.9,33.7,28.3,100,70,33,29.98,29.86,5,2,8,0.00
2013-10-23,65.7,43.4,28.4,40.1,32.4,26.1,94,69,35,30.00,29.91,7,2,11,0.00
2013-10-24,65.3,43.9,28.6,41.8,34.2,28.1,100,72,39,30.01,29.88,6,2,22,0.00
2013-10-25,63.3,43.8,29.7,39.4,32.1,25.4,95,67,34,30.03,29.90,7,2,53,0.00
2013-10-26,68.5,42.6,27.5,42.5,30.1,23.9,94,65,35,30.06,29.84,6,2,10,0.00
2013-10-27,66.2,40.4,27.0,38.1,28.8,22.7,87,67,31,29.87,29.59,27,10,103,3.59
2013-10-28,32.9,24.4,20.8,25.8,17.4,13.8,94,75,63,29.93,29.85,31,21,42,5.86
2013-10-29,36.5,25.4,20.1,23.2,19.0,14.9,91,77,58,29.87,29.68,21,8,28,0.00
2013-10-30,48.9,35.0,17.1,30.5,24.6,14.9,94,68,44,29.73,29.66,7,3,11,0.00
2013-10-31,53.1,40.6,31.5,34.9,28.8,24.0,87,64,44,29.80,29.66,19,7,31,0.11
2013-11-1,80.1,43.1,30.2,34.6,28.8,24.9,88,60,35,29.96,29.80,17,5,27,0.00
2013-11-2,61.0,42.9,31.8,37.9,31.5,25.9,89,67,33,29.89,29.37,36,12,50,1.65
2013-11-3,42.6,36.5,28.0,36.3,22.0,13.9,88,58,37,29.70,29.48,17,6,24,0.00
2013-11-4,40.5,28.7,21.0,28.0,23.7,19.1,100,82,53,29.86,29.70,12,4,18,0.00
2013-11-5,46.6,30.7,17.1,27.7,18.2,9.9,100,65,27,29.91,29.80,19,4,24,0.00
2013-11-6,45.7,37.9,32.2,35.9,26.6,19.6,100,67,40,30.06,29.82,16,6,30,0.15
2013-11-7,52.5,42.1,33.6,37.3,31.4,25.2,82,67,50,30.05,29.47,31,16,42,2.10
2013-11-8,46.9,42.0,36.5,35.9,29.7,23.8,89,63,52,29.87,29.55,24,9,30,0.01
2013-11-9,47.7,37.6,29.5,30.9,27.0,22.6,88,67,43,29.97,29.86,10,3,14,0.00
2013-11-10,53.2,40.2,34.9,39.0,32.3,28.7,89,75,51,29.95,29.84,17,5,24,0.00
2013-11-11,51.8,35.8,28.6,35.7,31.0,27.4,100,83,54,30.16,29.94,17,4,24,0.00
2013-11-12,58.5,41.3,25.9,39.3,32.8,25.6,100,76,44,30.16,29.98,10,2,14,26.83
2013-11-13,59.2,45.6,33.3,42.6,31.0,23.4,97,60,40,30.00,29.86,24,7,34,0.01
2013-11-14,54.9,35.6,25.2,32.6,25.4,20.2,88,68,47,29.93,29.55,103,4,103,0.00
2013-11-15,45.1,34.8,24.6,28.5,23.3,18.6,86,65,38,29.56,29.19,15,4,22,0.00
2013-11-16,48.0,37.2,29.5,32.3,24.3,14.8,91,61,34,29.39,29.06,53,12,53,0.32
2013-11-17,43.7,34.6,26.6,23.0,17.0,11.9,68,50,31,29.72,29.38,20,9,26,0.00
2013-11-18,55.6,42.1,28.4,25.6,18.8,11.8,62,42,23,29.74,29.55,23,10,31,0.00
2013-11-19,61.3,49.7,40.5,34.3,27.4,21.4,61,44,32,29.55,29.41,26,12,106,24.19
2013-11-20,45.3,17.1,4.6,31.0,8.2,-2.0,92,68,56,30.08,29.45,34,17,50,34.09
2013-11-21,25.9,11.3,0.3,11.4,4.0,-5.3,85,73,49,30.27,30.07,9,3,14,0.00
2013-11-22,35.1,16.0,4.8,18.8,8.0,1.0,91,72,44,30.35,30.26,5,2,7,0.00
2013-11-23,36.0,19.5,6.6,20.0,11.6,2.7,89,73,47,30.32,30.01,10,3,14,0.00
2013-11-24,35.2,23.6,11.1,23.3,16.6,7.4,90,75,55,30.01,29.90,6,2,8,0.00
2013-11-25,48.0,29.0,16.2,27.9,21.1,13.1,94,74,43,30.12,29.98,5,2,8,0.00
2013-11-26,51.3,30.4,16.3,31.5,23.2,14.4,94,76,45,30.12,29.88,5,2,9,0.00
2013-11-27,47.3,31.7,20.5,34.6,25.9,17.7,94,80,57,29.90,29.83,4,2,9,0.00
2013-11-28,46.9,27.6,15.3,29.9,21.7,13.2,100,80,50,29.90,29.82,6,2,8,0.00
2013-11-29,41.4,26.6,18.0,30.1,21.9,15.5,99,84,56,29.93,29.86,5,2,8,0.00
2013-11-30,44.2,38.7,33.1,34.1,30.7,27.2,86,73,62,29.95,29.86,9,3,14,0.00
2013-12-1,50.4,42.0,34.0,36.1,32.1,29.0,91,69,47,29.88,29.46,30,9,49,0.05
2013-12-2,44.4,30.4,9.9,38.6,24.5,-1.8,100,79,57,29.68,29.31,33,16,49,18.06
2013-12-3,10.4,5.6,1.4,0.2,-3.8,-9.6,75,64,58,29.92,29.68,27,22,41,2.59
2013-12-4,7.0,1.9,-7.4,-4.5,-9.0,-15.0,71,59,48,29.97,29.89,25,15,36,0.17
2013-12-5,9.5,-2.7,-12.8,-3.5,-11.5,-18.3,78,65,48,30.01,29.89,23,6,34,0.07
2013-12-6,-3.3,-8.6,-13.5,-15.0,-20.5,-24.0,61,54,42,30.09,30.00,22,16,34,0.00
2013-12-7,1.4,-11.9,-18.4,-15.8,-22.0,-27.0,70,59,41,30.04,29.82,14,5,21,0.00
2013-12-8,5.2,-10.2,-19.3,-2.7,-16.9,-26.2,79,70,60,29.99,29.84,4,2,8,0.00
2013-12-9,14.4,1.3,-15.0,8.6,-3.4,-20.8,87,79,62,29.99,29.84,4,1,8,0.00
2013-12-10,29.3,18.9,11.8,25.9,15.0,8.8,95,85,75,30.01,29.78,9,3,12,0.00
2013-12-11,16.7,14.0,10.8,14.3,11.7,7.9,94,90,85,30.02,30.00,4,2,8,0.00
2013-12-12,50.0,27.9,18.9,29.9,19.4,13.0,82,71,44,29.96,29.76,9,3,15,0.05
2013-12-13,42.6,28.3,19.4,26.7,21.6,15.2,91,76,58,30.00,29.76,9,3,16,0.00
2013-12-14,41.5,32.0,23.0,29.4,25.2,19.4,89,76,59,30.03,29.88,13,3,19,0.00
2013-12-15,43.0,33.1,24.1,29.4,23.6,17.4,83,69,52,29.94,29.80,10,4,17,0.00
2013-12-16,43.7,30.5,17.2,28.4,22.1,13.0,89,72,55,30.04,29.85,8,3,14,0.00
2013-12-17,54.9,36.1,21.4,29.0,22.5,14.7,84,61,34,30.04,29.62,27,8,43,0.89
2013-12-18,49.5,39.2,18.9,28.2,22.6,11.2,84,54,38,29.63,29.50,32,10,45,2.78
2013-12-19,18.7,8.2,-1.1,11.2,-1.3,-6.1,80,65,48,29.91,29.60,37,14,51,33.92
2013-12-20,18.1,8.1,-0.8,16.5,2.9,-5.5,93,78,61,29.78,29.36,6,2,10,0.00
2013-12-21,32.4,23.9,18.3,25.6,20.6,16.5,95,87,70,29.72,29.36,10,3,15,0.00
2013-12-22,29.3,18.4,2.7,24.1,14.8,-1.2,100,86,67,29.99,29.70,41,6,41,0.00
2013-12-23,45.5,24.1,8.2,36.3,20.4,6.2,99,86,51,29.98,29.62,38,6,56,17.73
2013-12-24,48.6,32.9,15.4,25.1,18.6,8.9,78,57,39,30.13,29.67,34,8,56,26.44
2013-12-25,36.3,18.9,7.3,20.2,12.2,3.0,87,75,48,30.17,29.97,6,2,15,0.00
2013-12-26,44.1,30.0,22.6,29.6,24.1,17.1,93,79,55,30.04,29.93,5,2,11,0.00
2013-12-27,51.1,34.6,18.5,31.6,24.2,15.9,94,68,46,29.99,29.66,31,7,39,0.00
2013-12-28,44.1,23.1,15.1,28.5,14.1,6.6,83,69,46,30.08,29.66,28,10,41,2.65
2013-12-29,30.7,20.8,11.5,21.0,15.3,8.2,88,79,54,30.07,29.79,11,2,17,0.00
2013-12-30,45.3,30.8,21.7,30.0,24.3,17.4,89,77,50,29.93,29.70,10,3,19,0.00
2013-12-31,43.3,38.2,34.5,35.4,30.7,24.2,93,75,56,29.84,29.67,98,7,100,0.18
2014-1-1,44.8,34.8,23.0,27.4,22.5,18.3,86,62,42,30.05,29.83,18,6,30,0.00
2014-1-2,46.6,31.8,20.7,28.9,22.5,16.5,86,70,43,30.01,29.57,26,5,37,0.02